Year,Month,Day,Hour,Minute,Value (Times are PST for temperature in C)
2008,05,15,00,00,10.80
2008,05,15,00,01,10.80
2008,05,15,00,02,10.80
2008,05,15,00,03,10.80
2008,05,15,00,04,10.80
2008,05,15,00,05,10.80
2008,05,15,00,06,10.80
2008,05,15,00,07,10.80
2008,05,15,00,08,10.80
2008,05,15,00,09,10.80
2008,05,15,00,10,10.80
2008,05,15,00,11,10.80
2008,05,15,00,12,10.80
2008,05,15,00,13,10.80
2008,05,15,01,02,10.80
2008,05,15,01,03,10.80
2008,05,15,01,04,10.80
2008,05,15,01,05,10.80
2008,05,15,01,06,10.80
2008,05,15,01,07,10.80
2008,05,15,01,08,10.80
2008,05,15,01,09,10.80
2008,05,15,01,10,10.80
2008,05,15,01,11,10.80
2008,05,15,01,12,10.80
2008,05,15,01,13,10.80
2008,05,15,01,14,10.80
2008,05,15,01,15,10.80
2008,05,15,01,16,10.80
2008,05,15,01,17,10.80
2008,05,15,01,18,10.80
2008,05,15,01,19,10.80
2008,05,15,01,20,10.80
2008,05,15,01,21,10.80
2008,05,15,01,22,10.80
2008,05,15,01,23,10.80
2008,05,15,01,24,10.80
2008,05,15,01,25,10.80
2008,05,15,01,26,10.80
2008,05,15,01,27,10.90
2008,05,15,01,28,10.90
2008,05,15,01,29,10.90
2008,05,15,01,30,10.90
2008,05,15,01,31,10.90
2008,05,15,01,32,10.90
2008,05,15,01,33,10.90
2008,05,15,01,34,10.90
2008,05,15,01,35,10.90
2008,05,15,01,36,10.90
2008,05,15,01,37,10.80
2008,05,15,01,38,10.90
2008,05,15,01,39,10.90
2008,05,15,01,40,10.90
2008,05,15,01,41,10.90
2008,05,15,01,42,10.90
2008,05,15,01,43,10.90
2008,05,15,01,44,10.90
2008,05,15,01,45,10.90
2008,05,15,01,46,10.90
2008,05,15,01,47,10.90
2008,05,15,01,48,10.90
2008,05,15,01,49,10.90
2008,05,15,01,50,10.90
2008,05,15,01,51,10.80
2008,05,15,01,52,10.80
2008,05,15,01,53,10.90
2008,05,15,01,54,10.90
2008,05,15,01,55,10.90
2008,05,15,01,56,10.90
2008,05,15,01,57,10.90
2008,05,15,01,58,10.90
2008,05,15,01,59,10.90
2008,05,15,02,00,10.90
2008,05,15,02,01,10.90
2008,05,15,02,02,10.90
2008,05,15,02,03,10.90
2008,05,15,02,04,10.90
2008,05,15,02,05,10.90
2008,05,15,02,06,10.90
2008,05,15,02,07,10.90
2008,05,15,02,08,10.90
2008,05,15,02,09,10.90
2008,05,15,02,10,10.90
2008,05,15,02,11,10.90
2008,05,15,02,12,10.90
2008,05,15,02,13,10.90
2008,05,15,02,14,10.90
2008,05,15,02,15,10.90
2008,05,15,02,16,10.90
2008,05,15,02,17,10.90
2008,05,15,02,18,10.90
2008,05,15,02,19,10.90
2008,05,15,02,20,10.90
2008,05,15,02,21,10.90
2008,05,15,02,22,10.90
2008,05,15,02,23,10.90
2008,05,15,02,24,10.90
2008,05,15,02,25,10.90
2008,05,15,02,26,10.90
2008,05,15,02,27,10.90
2008,05,15,02,28,10.90
2008,05,15,02,29,10.90
2008,05,15,02,30,10.90
2008,05,15,02,31,10.90
2008,05,15,02,32,10.90
2008,05,15,02,33,10.90
2008,05,15,02,34,10.90
2008,05,15,02,35,10.90
2008,05,15,02,36,10.90
2008,05,15,02,37,10.90
2008,05,15,02,38,10.90
2008,05,15,02,39,10.90
2008,05,15,02,40,10.90
2008,05,15,02,41,10.90
2008,05,15,02,42,10.90
2008,05,15,02,43,10.90
2008,05,15,02,44,10.90
2008,05,15,02,45,10.90
2008,05,15,02,46,10.90
2008,05,15,02,47,10.90
2008,05,15,02,48,10.90
2008,05,15,02,49,10.90
2008,05,15,02,50,10.90
2008,05,15,02,51,10.90
2008,05,15,02,52,10.90
2008,05,15,02,53,10.90
2008,05,15,02,54,10.90
2008,05,15,02,55,10.90
2008,05,15,02,56,10.90
2008,05,15,02,57,10.90
2008,05,15,02,58,10.90
2008,05,15,02,59,10.90
2008,05,15,03,00,10.90
2008,05,15,03,01,10.90
2008,05,15,03,02,10.90
2008,05,15,03,03,10.90
2008,05,15,03,04,10.90
2008,05,15,03,05,10.90
2008,05,15,03,06,10.90
2008,05,15,03,07,10.90
2008,05,15,03,08,10.90
2008,05,15,03,09,10.90
2008,05,15,03,10,10.90
2008,05,15,03,11,10.90
2008,05,15,03,12,10.90
2008,05,15,03,13,10.90
2008,05,15,03,14,10.90
2008,05,15,03,15,10.90
2008,05,15,03,16,10.90
2008,05,15,03,17,10.90
2008,05,15,03,18,10.90
2008,05,15,03,19,10.90
2008,05,15,03,20,10.90
2008,05,15,03,21,10.90
2008,05,15,03,22,10.90
2008,05,15,03,23,10.90
2008,05,15,03,24,10.90
2008,05,15,03,25,10.90
2008,05,15,03,26,10.90
2008,05,15,03,27,10.90
2008,05,15,03,28,11.00
2008,05,15,03,29,11.00
2008,05,15,03,30,11.00
2008,05,15,03,31,11.00
2008,05,15,03,32,11.00
2008,05,15,03,33,11.00
2008,05,15,03,34,11.00
2008,05,15,03,35,11.00
2008,05,15,03,36,11.00
2008,05,15,03,37,11.00
2008,05,15,03,38,11.00
2008,05,15,03,39,11.00
2008,05,15,03,40,11.00
2008,05,15,03,41,11.00
2008,05,15,03,42,10.90
2008,05,15,03,43,10.90
2008,05,15,03,44,10.90
2008,05,15,03,45,10.90
2008,05,15,03,46,10.90
2008,05,15,03,47,10.90
2008,05,15,03,48,10.90
2008,05,15,03,49,10.90
2008,05,15,03,50,10.90
2008,05,15,03,51,10.90
2008,05,15,03,52,10.90
2008,05,15,03,53,10.90
2008,05,15,03,54,10.90
2008,05,15,03,55,10.90
2008,05,15,03,56,10.90
2008,05,15,03,57,10.90
2008,05,15,03,58,10.90
2008,05,15,03,59,10.90
2008,05,15,04,00,10.90
2008,05,15,04,01,10.90
2008,05,15,04,02,10.90
2008,05,15,04,03,11.00
2008,05,15,04,04,11.00
2008,05,15,04,05,11.00
2008,05,15,04,06,11.00
2008,05,15,04,07,11.00
2008,05,15,04,08,11.00
2008,05,15,04,09,11.00
2008,05,15,04,10,11.00
2008,05,15,04,11,11.00
2008,05,15,04,12,11.00
2008,05,15,04,13,11.00
2008,05,15,04,14,11.00
2008,05,15,04,15,11.00
2008,05,15,04,16,11.10
2008,05,15,04,17,11.10
2008,05,15,04,18,11.10
2008,05,15,04,19,11.10
2008,05,15,04,20,11.10
2008,05,15,04,21,11.10
2008,05,15,04,22,11.10
2008,05,15,04,23,11.10
2008,05,15,04,24,11.10
2008,05,15,04,25,11.10
2008,05,15,04,26,11.10
2008,05,15,04,27,11.10
2008,05,15,04,28,11.10
2008,05,15,04,29,11.10
2008,05,15,04,30,11.10
2008,05,15,04,31,11.10
2008,05,15,04,32,11.10
2008,05,15,04,33,11.10
2008,05,15,04,34,11.10
2008,05,15,04,35,11.10
2008,05,15,04,36,11.10
2008,05,15,04,37,11.10
2008,05,15,04,38,11.10
2008,05,15,04,39,11.10
2008,05,15,04,40,11.10
2008,05,15,04,41,11.00
2008,05,15,04,42,11.00
2008,05,15,04,43,11.10
2008,05,15,04,44,11.10
2008,05,15,04,45,11.00
2008,05,15,04,46,11.00
2008,05,15,04,47,11.00
2008,05,15,04,48,11.00
2008,05,15,04,49,11.00
2008,05,15,04,50,11.00
2008,05,15,04,51,11.00
2008,05,15,04,52,11.00
2008,05,15,04,53,11.00
2008,05,15,04,54,11.00
2008,05,15,04,55,11.00
2008,05,15,04,56,11.00
2008,05,15,04,57,11.00
2008,05,15,04,58,11.00
2008,05,15,04,59,11.00
2008,05,15,05,00,11.00
2008,05,15,05,01,11.00
2008,05,15,05,02,11.00
2008,05,15,05,03,11.00
2008,05,15,05,04,11.00
2008,05,15,05,05,11.00
2008,05,15,05,06,11.00
2008,05,15,05,07,11.00
2008,05,15,05,08,11.00
2008,05,15,05,09,11.00
2008,05,15,05,10,11.00
2008,05,15,05,11,11.00
2008,05,15,05,12,11.00
2008,05,15,05,13,11.00
2008,05,15,05,14,11.00
2008,05,15,05,15,11.00
2008,05,15,05,16,11.00
2008,05,15,05,17,11.00
2008,05,15,05,18,11.00
2008,05,15,05,19,11.00
2008,05,15,05,20,11.00
2008,05,15,05,21,11.00
2008,05,15,05,22,11.00
2008,05,15,05,23,11.00
2008,05,15,05,24,11.00
2008,05,15,05,25,11.00
2008,05,15,05,26,11.00
2008,05,15,05,27,11.00
2008,05,15,05,28,11.00
2008,05,15,05,29,11.00
2008,05,15,05,30,11.00
2008,05,15,05,31,11.00
2008,05,15,05,32,11.00
2008,05,15,05,33,10.90
2008,05,15,05,34,10.90
2008,05,15,05,35,10.90
2008,05,15,05,36,10.90
2008,05,15,05,37,10.90
2008,05,15,05,38,10.90
2008,05,15,05,39,10.90
2008,05,15,05,40,10.90
2008,05,15,05,41,10.90
2008,05,15,05,42,10.90
2008,05,15,05,43,10.90
2008,05,15,05,44,10.90
2008,05,15,05,45,10.90
2008,05,15,05,46,10.90
2008,05,15,05,47,10.90
2008,05,15,05,48,10.90
2008,05,15,05,49,10.90
2008,05,15,05,50,10.90
2008,05,15,05,51,10.90
2008,05,15,05,52,10.90
2008,05,15,05,53,10.90
2008,05,15,05,54,10.80
2008,05,15,05,55,10.80
2008,05,15,05,56,10.80
2008,05,15,05,57,10.80
2008,05,15,05,58,10.80
2008,05,15,05,59,10.80
2008,05,15,06,00,10.80
2008,05,15,06,01,10.80
2008,05,15,06,02,10.80
2008,05,15,06,03,10.80
2008,05,15,06,04,10.80
2008,05,15,06,05,10.80
2008,05,15,06,06,10.80
2008,05,15,06,07,10.80
2008,05,15,06,08,10.90
2008,05,15,06,09,10.90
2008,05,15,06,10,10.90
2008,05,15,06,11,10.90
2008,05,15,06,12,10.90
2008,05,15,06,13,10.90
2008,05,15,06,14,10.90
2008,05,15,06,15,10.90
2008,05,15,06,16,10.90
2008,05,15,06,17,10.90
2008,05,15,06,18,10.90
2008,05,15,06,19,10.90
2008,05,15,06,20,10.90
2008,05,15,06,21,10.90
2008,05,15,06,22,10.90
2008,05,15,06,23,10.90
2008,05,15,06,24,10.90
2008,05,15,06,25,10.90
2008,05,15,06,26,10.90
2008,05,15,06,27,10.90
2008,05,15,06,28,10.90
2008,05,15,06,29,10.90
2008,05,15,06,30,10.90
2008,05,15,06,31,10.90
2008,05,15,06,32,10.90
2008,05,15,06,33,10.90
2008,05,15,06,34,10.90
2008,05,15,06,35,10.90
2008,05,15,06,36,10.90
2008,05,15,06,37,10.90
2008,05,15,06,38,11.00
2008,05,15,06,39,11.00
2008,05,15,06,40,11.00
2008,05,15,06,41,11.00
2008,05,15,06,42,11.00
2008,05,15,06,43,11.00
2008,05,15,06,44,11.00
2008,05,15,06,45,11.10
2008,05,15,06,46,11.10
2008,05,15,06,47,11.10
2008,05,15,06,48,11.10
2008,05,15,06,49,11.10
2008,05,15,06,50,11.10
2008,05,15,06,51,11.10
2008,05,15,06,52,11.10
2008,05,15,06,53,11.10
2008,05,15,06,54,11.10
2008,05,15,06,55,11.10
2008,05,15,06,56,11.10
2008,05,15,06,57,11.10
2008,05,15,06,58,11.10
2008,05,15,06,59,11.10
2008,05,15,07,00,11.10
2008,05,15,07,01,11.10
2008,05,15,07,02,11.10
2008,05,15,07,03,11.10
2008,05,15,07,04,11.10
2008,05,15,07,05,11.10
2008,05,15,07,06,11.10
2008,05,15,07,07,11.10
2008,05,15,07,08,11.20
2008,05,15,07,09,11.20
2008,05,15,07,10,11.20
2008,05,15,07,11,11.20
2008,05,15,07,12,11.20
2008,05,15,07,13,11.20
2008,05,15,07,14,11.20
2008,05,15,07,15,11.20
2008,05,15,07,16,11.20
2008,05,15,07,17,11.20
2008,05,15,07,18,11.20
2008,05,15,07,19,11.20
2008,05,15,07,20,11.20
2008,05,15,07,21,11.20
2008,05,15,07,22,11.20
2008,05,15,07,23,11.30
2008,05,15,07,24,11.30
2008,05,15,07,25,11.30
2008,05,15,07,26,11.20
2008,05,15,07,27,11.30
2008,05,15,07,28,11.30
2008,05,15,07,29,11.30
2008,05,15,07,30,11.30
2008,05,15,07,31,11.30
2008,05,15,07,32,11.30
2008,05,15,07,33,11.30
2008,05,15,07,34,11.30
2008,05,15,07,35,11.30
2008,05,15,07,36,11.40
2008,05,15,07,37,11.40
2008,05,15,07,38,11.40
2008,05,15,07,39,11.40
2008,05,15,07,40,11.40
2008,05,15,07,41,11.40
2008,05,15,07,42,11.40
2008,05,15,07,43,11.40
2008,05,15,07,44,11.40
2008,05,15,07,45,11.50
2008,05,15,07,46,11.50
2008,05,15,07,47,11.50
2008,05,15,07,48,11.50
2008,05,15,07,49,11.50
2008,05,15,07,50,11.60
2008,05,15,07,51,11.60
2008,05,15,07,52,11.60
2008,05,15,07,53,11.60
2008,05,15,07,54,11.60
2008,05,15,07,55,11.60
2008,05,15,07,56,11.60
2008,05,15,07,57,11.60
2008,05,15,07,58,11.70
2008,05,15,07,59,11.70
2008,05,15,08,00,11.70
2008,05,15,08,01,11.70
2008,05,15,08,02,11.70
2008,05,15,08,03,11.80
2008,05,15,08,04,11.80
2008,05,15,08,05,11.80
2008,05,15,08,06,11.80
2008,05,15,08,07,11.80
2008,05,15,08,08,11.80
2008,05,15,08,09,11.80
2008,05,15,08,10,11.80
2008,05,15,08,11,11.80
2008,05,15,08,12,11.80
2008,05,15,08,13,11.80
2008,05,15,08,14,11.90
2008,05,15,08,15,11.90
2008,05,15,08,16,11.90
2008,05,15,08,17,11.90
2008,05,15,08,18,11.90
2008,05,15,08,19,12.00
2008,05,15,08,20,12.00
2008,05,15,08,21,12.00
2008,05,15,08,22,12.00
2008,05,15,08,23,12.00
2008,05,15,08,24,12.00
2008,05,15,08,25,12.10
2008,05,15,08,26,12.10
2008,05,15,08,27,12.10
2008,05,15,08,28,12.10
2008,05,15,08,29,12.10
2008,05,15,08,30,12.10
2008,05,15,08,31,12.10
2008,05,15,08,32,12.10
2008,05,15,08,33,12.10
2008,05,15,08,34,12.10
2008,05,15,08,35,12.10
2008,05,15,08,36,12.20
2008,05,15,08,37,12.20
2008,05,15,08,38,12.20
2008,05,15,08,39,12.20
2008,05,15,08,40,12.20
2008,05,15,08,41,12.20
2008,05,15,08,42,12.20
2008,05,15,08,43,12.20
2008,05,15,08,44,12.20
2008,05,15,08,45,12.20
2008,05,15,08,46,12.20
2008,05,15,08,47,12.20
2008,05,15,08,48,12.30
2008,05,15,08,49,12.30
2008,05,15,08,50,12.30
2008,05,15,08,51,12.30
2008,05,15,08,52,12.30
2008,05,15,08,53,12.30
2008,05,15,08,54,12.30
2008,05,15,08,55,12.40
2008,05,15,08,56,12.40
2008,05,15,08,57,12.40
2008,05,15,08,58,12.40
2008,05,15,08,59,12.40
2008,05,15,09,00,12.40
2008,05,15,09,01,12.50
2008,05,15,09,02,12.50
2008,05,15,09,03,12.50
2008,05,15,09,04,12.50
2008,05,15,09,05,12.50
2008,05,15,09,06,12.50
2008,05,15,09,07,12.40
2008,05,15,09,08,12.40
2008,05,15,09,09,12.40
2008,05,15,09,10,12.40
2008,05,15,09,11,12.40
2008,05,15,09,12,12.40
2008,05,15,09,13,12.40
2008,05,15,09,14,12.40
2008,05,15,09,15,12.40
2008,05,15,09,16,12.40
2008,05,15,09,17,12.40
2008,05,15,09,18,12.40
2008,05,15,09,19,12.40
2008,05,15,09,20,12.40
2008,05,15,09,21,12.40
2008,05,15,09,22,12.40
2008,05,15,09,23,12.40
2008,05,15,09,24,12.40
2008,05,15,09,25,12.40
2008,05,15,09,26,12.40
2008,05,15,09,27,12.40
2008,05,15,09,28,12.40
2008,05,15,09,29,12.40
2008,05,15,09,30,12.50
2008,05,15,09,31,12.50
2008,05,15,09,32,12.50
2008,05,15,09,33,12.60
2008,05,15,09,34,12.60
2008,05,15,09,35,12.60
2008,05,15,09,36,12.60
2008,05,15,09,37,12.60
2008,05,15,09,38,12.70
2008,05,15,09,39,12.70
2008,05,15,09,40,12.80
2008,05,15,09,41,12.80
2008,05,15,09,42,12.90
2008,05,15,09,43,12.90
2008,05,15,09,44,12.90
2008,05,15,09,45,13.00
2008,05,15,09,46,13.00
2008,05,15,09,47,13.00
2008,05,15,09,48,13.00
2008,05,15,09,49,12.90
2008,05,15,09,50,13.00
2008,05,15,09,51,12.90
2008,05,15,09,52,13.00
2008,05,15,09,53,13.00
2008,05,15,09,54,12.90
2008,05,15,09,55,12.90
2008,05,15,09,56,12.90
2008,05,15,09,57,12.90
2008,05,15,09,58,12.90
2008,05,15,09,59,12.90
2008,05,15,10,00,12.80
2008,05,15,10,01,12.80
2008,05,15,10,02,12.80
2008,05,15,10,03,12.80
2008,05,15,10,04,12.80
2008,05,15,10,05,12.80
2008,05,15,10,06,12.80
2008,05,15,10,07,12.80
2008,05,15,10,08,12.80
2008,05,15,10,09,12.80
2008,05,15,10,10,12.80
2008,05,15,10,11,12.80
2008,05,15,10,12,12.80
2008,05,15,10,13,12.80
2008,05,15,10,14,12.80
2008,05,15,10,15,12.80
2008,05,15,10,16,12.80
2008,05,15,10,17,12.80
2008,05,15,10,18,12.80
2008,05,15,10,19,12.80
2008,05,15,10,20,12.80
2008,05,15,10,21,12.70
2008,05,15,10,22,12.70
2008,05,15,10,23,12.70
2008,05,15,10,24,12.70
2008,05,15,10,25,12.70
2008,05,15,10,26,12.70
2008,05,15,10,27,12.70
2008,05,15,10,28,12.70
2008,05,15,10,29,12.70
2008,05,15,10,30,12.80
2008,05,15,10,31,12.80
2008,05,15,10,32,12.80
2008,05,15,10,33,12.80
2008,05,15,10,34,12.80
2008,05,15,10,35,12.70
2008,05,15,10,36,12.70
2008,05,15,10,37,12.70
2008,05,15,10,38,12.60
2008,05,15,10,39,12.60
2008,05,15,10,40,12.50
2008,05,15,10,41,12.50
2008,05,15,10,42,12.50
2008,05,15,10,43,12.50
2008,05,15,10,44,12.50
2008,05,15,10,45,12.50
2008,05,15,10,46,12.50
2008,05,15,10,47,12.50
2008,05,15,10,48,12.50
2008,05,15,10,49,12.50
2008,05,15,10,50,12.40
2008,05,15,10,51,12.40
2008,05,15,10,52,12.30
2008,05,15,10,53,12.30
2008,05,15,10,54,12.30
2008,05,15,10,55,12.30
2008,05,15,10,56,12.30
2008,05,15,10,57,12.30
2008,05,15,10,58,12.30
2008,05,15,10,59,12.30
2008,05,15,11,00,12.30
2008,05,15,11,01,12.30
2008,05,15,11,02,12.40
2008,05,15,11,03,12.40
2008,05,15,11,04,12.40
2008,05,15,11,05,12.40
2008,05,15,11,06,12.40
2008,05,15,11,07,12.40
2008,05,15,11,08,12.40
2008,05,15,11,09,12.40
2008,05,15,11,10,12.40
2008,05,15,11,11,12.40
2008,05,15,11,12,12.40
2008,05,15,11,13,12.40
2008,05,15,11,14,12.40
2008,05,15,11,15,12.40
2008,05,15,11,16,12.40
2008,05,15,11,17,12.40
2008,05,15,11,18,12.40
2008,05,15,11,19,12.40
2008,05,15,11,20,12.50
2008,05,15,11,21,12.50
2008,05,15,11,22,12.50
2008,05,15,11,23,12.60
2008,05,15,11,24,12.70
2008,05,15,11,25,12.70
2008,05,15,11,26,12.70
2008,05,15,11,27,12.70
2008,05,15,11,28,12.70
2008,05,15,11,29,12.70
2008,05,15,11,30,12.70
2008,05,15,11,31,12.60
2008,05,15,11,32,12.60
2008,05,15,11,33,12.60
2008,05,15,11,34,12.60
2008,05,15,11,35,12.60
2008,05,15,11,36,12.50
2008,05,15,11,37,12.60
2008,05,15,11,38,12.60
2008,05,15,11,39,12.60
2008,05,15,11,40,12.70
2008,05,15,11,41,12.70
2008,05,15,11,42,12.70
2008,05,15,11,43,12.70
2008,05,15,11,44,12.70
2008,05,15,11,45,12.70
2008,05,15,11,46,12.70
2008,05,15,11,47,12.70
2008,05,15,11,48,12.70
2008,05,15,11,49,12.70
2008,05,15,11,50,12.70
2008,05,15,11,51,12.80
2008,05,15,11,52,12.80
2008,05,15,11,53,12.80
2008,05,15,11,54,12.90
2008,05,15,11,55,13.00
2008,05,15,11,56,13.00
2008,05,15,11,57,13.10
2008,05,15,11,58,13.10
2008,05,15,11,59,13.10
2008,05,15,12,00,13.10
2008,05,15,12,01,13.10
2008,05,15,12,02,13.10
2008,05,15,12,03,13.10
2008,05,15,12,04,13.10
2008,05,15,12,05,13.20
2008,05,15,12,06,13.20
2008,05,15,12,07,13.20
2008,05,15,12,08,13.30
2008,05,15,12,09,13.30
2008,05,15,12,10,13.30
2008,05,15,12,11,13.30
2008,05,15,12,12,13.30
2008,05,15,12,13,13.40
2008,05,15,12,14,13.40
2008,05,15,12,15,13.40
2008,05,15,12,16,13.50
2008,05,15,12,17,13.40
2008,05,15,12,18,13.40
2008,05,15,12,19,13.40
2008,05,15,12,20,13.40
2008,05,15,12,21,13.40
2008,05,15,12,22,13.40
2008,05,15,12,23,13.50
2008,05,15,12,24,13.50
2008,05,15,12,25,13.60
2008,05,15,12,26,13.60
2008,05,15,12,27,13.60
2008,05,15,12,28,13.60
2008,05,15,12,29,13.60
2008,05,15,12,30,13.60
2008,05,15,12,31,13.50
2008,05,15,12,32,13.50
2008,05,15,12,33,13.60
2008,05,15,12,34,13.50
2008,05,15,12,35,13.50
2008,05,15,12,36,13.50
2008,05,15,12,37,13.50
2008,05,15,12,38,13.40
2008,05,15,12,39,13.50
2008,05,15,12,40,13.50
2008,05,15,12,41,13.60
2008,05,15,12,42,13.60
2008,05,15,12,43,13.70
2008,05,15,12,44,13.70
2008,05,15,12,45,13.70
2008,05,15,12,46,13.80
2008,05,15,12,47,13.70
2008,05,15,12,48,13.70
2008,05,15,12,49,13.70
2008,05,15,12,50,13.70
2008,05,15,12,51,13.60
2008,05,15,12,52,13.60
2008,05,15,12,53,13.60
2008,05,15,12,54,13.60
2008,05,15,12,55,13.60
2008,05,15,12,56,13.60
2008,05,15,12,57,13.60
2008,05,15,12,58,13.60
2008,05,15,12,59,13.60
2008,05,15,13,00,13.60
2008,05,15,13,01,13.60
2008,05,15,13,02,13.70
2008,05,15,13,03,13.70
2008,05,15,13,04,13.70
2008,05,15,13,05,13.70
2008,05,15,13,06,13.80
2008,05,15,13,07,13.90
2008,05,15,13,08,13.90
2008,05,15,13,09,14.00
2008,05,15,13,10,14.00
2008,05,15,13,11,13.90
2008,05,15,13,12,13.90
2008,05,15,13,13,13.90
2008,05,15,13,14,13.90
2008,05,15,13,15,13.90
2008,05,15,13,16,13.90
2008,05,15,13,17,13.80
2008,05,15,13,18,13.70
2008,05,15,13,19,13.70
2008,05,15,13,20,13.70
2008,05,15,13,21,13.70
2008,05,15,13,22,13.70
2008,05,15,13,23,13.70
2008,05,15,13,24,13.80
2008,05,15,13,25,13.80
2008,05,15,13,26,13.90
2008,05,15,13,27,13.90
2008,05,15,13,28,13.90
2008,05,15,13,29,13.90
2008,05,15,13,30,13.90
2008,05,15,13,31,14.00
2008,05,15,13,32,14.00
2008,05,15,13,33,14.00
2008,05,15,13,34,14.00
2008,05,15,13,35,14.00
2008,05,15,13,36,14.00
2008,05,15,13,37,14.00
2008,05,15,13,38,14.10
2008,05,15,13,39,14.10
2008,05,15,13,40,14.10
2008,05,15,13,41,14.10
2008,05,15,13,42,14.20
2008,05,15,13,43,14.20
2008,05,15,13,44,14.20
2008,05,15,13,45,14.20
2008,05,15,13,46,14.20
2008,05,15,13,47,14.20
2008,05,15,13,48,14.20
2008,05,15,13,49,14.20
2008,05,15,13,50,14.10
2008,05,15,13,51,14.10
2008,05,15,13,52,14.10
2008,05,15,13,53,14.10
2008,05,15,13,54,14.10
2008,05,15,13,55,14.20
2008,05,15,13,56,14.20
2008,05,15,13,57,14.20
2008,05,15,13,58,14.20
2008,05,15,13,59,14.20
2008,05,15,14,00,14.20
2008,05,15,14,01,14.20
2008,05,15,14,02,14.20
2008,05,15,14,03,14.20
2008,05,15,14,04,14.20
2008,05,15,14,05,14.20
2008,05,15,14,06,14.30
2008,05,15,14,07,14.40
2008,05,15,14,08,14.50
2008,05,15,14,09,14.60
2008,05,15,14,10,14.70
2008,05,15,14,11,14.80
2008,05,15,14,12,15.00
2008,05,15,14,13,15.00
2008,05,15,14,14,15.00
2008,05,15,14,15,15.00
2008,05,15,14,16,15.20
2008,05,15,14,17,15.40
2008,05,15,14,18,15.60
2008,05,15,14,19,15.80
2008,05,15,14,20,15.90
2008,05,15,14,21,16.00
2008,05,15,14,22,16.10
2008,05,15,14,23,16.10
2008,05,15,14,24,16.00
2008,05,15,14,25,16.10
2008,05,15,14,26,16.10
2008,05,15,14,27,16.10
2008,05,15,14,28,16.10
2008,05,15,14,29,16.20
2008,05,15,14,30,16.30
2008,05,15,14,31,16.30
2008,05,15,14,32,16.30
2008,05,15,14,33,16.30
2008,05,15,14,34,16.30
2008,05,15,14,35,16.20
2008,05,15,14,36,16.10
2008,05,15,14,37,16.10
2008,05,15,14,38,16.10
2008,05,15,14,39,16.00
2008,05,15,14,40,15.80
2008,05,15,14,41,15.80
2008,05,15,14,42,15.80
2008,05,15,14,43,15.80
2008,05,15,14,44,15.80
2008,05,15,14,45,15.60
2008,05,15,14,46,15.60
2008,05,15,14,47,15.50
2008,05,15,14,48,15.40
2008,05,15,14,49,15.30
2008,05,15,14,50,15.30
2008,05,15,14,51,15.20
2008,05,15,14,52,15.00
2008,05,15,14,53,15.00
2008,05,15,14,54,15.00
2008,05,15,14,55,15.00
2008,05,15,14,56,15.00
2008,05,15,14,57,15.10
2008,05,15,14,58,15.20
2008,05,15,14,59,15.10
2008,05,15,15,00,15.10
2008,05,15,15,01,15.20
2008,05,15,15,02,15.30
2008,05,15,15,03,15.30
2008,05,15,15,04,15.40
2008,05,15,15,05,15.60
2008,05,15,15,06,15.70
2008,05,15,15,07,15.90
2008,05,15,15,08,16.00
2008,05,15,15,09,16.10
2008,05,15,15,10,16.20
2008,05,15,15,11,16.20
2008,05,15,15,12,16.20
2008,05,15,15,13,16.20
2008,05,15,15,14,16.20
2008,05,15,15,15,16.30
2008,05,15,15,16,16.20
2008,05,15,15,17,16.30
2008,05,15,15,18,16.30
2008,05,15,15,19,16.30
2008,05,15,15,20,16.30
2008,05,15,15,21,16.30
2008,05,15,15,22,16.30
2008,05,15,15,23,16.30
2008,05,15,15,24,16.30
2008,05,15,15,25,16.20
2008,05,15,15,26,16.20
2008,05,15,15,27,16.10
2008,05,15,15,28,16.10
2008,05,15,15,29,15.90
2008,05,15,15,30,15.70
2008,05,15,15,31,15.50
2008,05,15,15,32,15.50
2008,05,15,15,33,15.50
2008,05,15,15,34,15.50
2008,05,15,15,35,15.40
2008,05,15,15,36,15.40
2008,05,15,15,37,15.40
2008,05,15,15,38,15.40
2008,05,15,15,39,15.40
2008,05,15,15,40,15.50
2008,05,15,15,41,15.60
2008,05,15,15,42,15.60
2008,05,15,15,43,15.70
2008,05,15,15,44,15.60
2008,05,15,15,45,15.60
2008,05,15,15,46,15.70
2008,05,15,15,47,15.70
2008,05,15,15,48,15.70
2008,05,15,15,49,15.70
2008,05,15,15,50,15.60
2008,05,15,15,51,15.60
2008,05,15,15,52,15.40
2008,05,15,15,53,15.40
2008,05,15,15,54,15.40
2008,05,15,15,55,15.50
2008,05,15,15,56,15.60
2008,05,15,15,57,15.70
2008,05,15,15,58,15.80
2008,05,15,15,59,15.80
2008,05,15,16,00,15.90
2008,05,15,16,01,15.90
2008,05,15,16,02,15.90
2008,05,15,16,03,15.90
2008,05,15,16,04,15.90
2008,05,15,16,05,15.90
2008,05,15,16,06,15.90
2008,05,15,16,07,15.90
2008,05,15,16,08,15.90
2008,05,15,16,09,16.00
2008,05,15,16,10,16.00
2008,05,15,16,11,16.00
2008,05,15,16,12,16.10
2008,05,15,16,13,16.20
2008,05,15,16,14,16.30
2008,05,15,16,15,16.30
2008,05,15,16,16,16.30
2008,05,15,16,17,16.30
2008,05,15,16,18,16.30
2008,05,15,16,19,16.30
2008,05,15,16,20,16.30
2008,05,15,16,21,16.20
2008,05,15,16,22,16.20
2008,05,15,16,23,16.20
2008,05,15,16,24,16.20
2008,05,15,16,25,16.30
2008,05,15,16,26,16.50
2008,05,15,16,27,16.60
2008,05,15,16,28,16.70
2008,05,15,16,29,16.90
2008,05,15,16,30,17.00
2008,05,15,16,31,17.00
2008,05,15,16,32,17.10
2008,05,15,16,33,17.10
2008,05,15,16,34,17.20
2008,05,15,16,35,17.30
2008,05,15,16,36,17.40
2008,05,15,16,37,17.50
2008,05,15,16,38,17.50
2008,05,15,16,39,17.60
2008,05,15,16,40,17.70
2008,05,15,16,41,17.60
2008,05,15,16,42,17.60
2008,05,15,16,43,17.60
2008,05,15,16,44,17.60
2008,05,15,16,45,17.60
2008,05,15,16,46,17.60
2008,05,15,16,47,17.60
2008,05,15,16,48,17.60
2008,05,15,16,49,17.70
2008,05,15,16,50,17.70
2008,05,15,16,51,17.80
2008,05,15,16,52,17.80
2008,05,15,16,53,17.80
2008,05,15,16,54,17.80
2008,05,15,16,55,17.80
2008,05,15,16,56,17.80
2008,05,15,16,57,17.80
2008,05,15,16,58,17.80
2008,05,15,16,59,17.80
2008,05,15,17,00,17.80
2008,05,15,17,01,17.80
2008,05,15,17,02,17.90
2008,05,15,17,03,17.90
2008,05,15,17,04,17.90
2008,05,15,17,05,17.80
2008,05,15,17,06,17.80
2008,05,15,17,07,17.80
2008,05,15,17,08,17.70
2008,05,15,17,09,17.70
2008,05,15,17,10,17.70
2008,05,15,17,11,17.70
2008,05,15,17,12,17.70
2008,05,15,17,13,17.70
2008,05,15,17,14,17.80
2008,05,15,17,15,17.80
2008,05,15,17,16,17.90
2008,05,15,17,17,18.00
2008,05,15,17,18,18.10
2008,05,15,17,19,18.20
2008,05,15,17,20,18.20
2008,05,15,17,21,18.30
2008,05,15,17,22,18.40
2008,05,15,17,23,18.50
2008,05,15,17,24,18.60
2008,05,15,17,25,18.70
2008,05,15,17,26,18.70
2008,05,15,17,27,18.80
2008,05,15,17,28,18.90
2008,05,15,17,29,18.90
2008,05,15,17,30,18.90
2008,05,15,17,31,19.00
2008,05,15,17,32,19.10
2008,05,15,17,33,19.10
2008,05,15,17,34,19.10
2008,05,15,17,35,19.20
2008,05,15,17,36,19.20
2008,05,15,17,37,19.10
2008,05,15,17,38,19.10
2008,05,15,17,39,19.10
2008,05,15,17,40,18.90
2008,05,15,17,41,18.80
2008,05,15,17,42,18.60
2008,05,15,17,43,18.50
2008,05,15,17,44,18.40
2008,05,15,17,45,18.40
2008,05,15,17,46,18.40
2008,05,15,17,47,18.40
2008,05,15,17,48,18.40
2008,05,15,17,49,18.40
2008,05,15,17,50,18.50
2008,05,15,17,51,18.60
2008,05,15,17,52,18.60
2008,05,15,17,53,18.70
2008,05,15,17,54,18.70
2008,05,15,17,55,18.70
2008,05,15,17,56,18.70
2008,05,15,17,57,18.80
2008,05,15,17,58,18.80
2008,05,15,17,59,18.80
2008,05,15,18,00,18.90
2008,05,15,18,01,18.90
2008,05,15,18,02,19.00
2008,05,15,18,03,19.10
2008,05,15,18,04,19.30
2008,05,15,18,05,19.40
2008,05,15,18,06,19.50
2008,05,15,18,07,19.60